OpenBCM V1.08-5-g2f4a (Linux)

Packet Radio Mailbox

IZ3LSV

[San Dona' di P. JN]

 Login: GUEST





  
I6KZR  > KEPLER   09.10.12 10:26l 992 Lines 26291 Bytes #999 (0) @ EU
BID : 1735_I6KZR
Read: GUEST
Subj: Old Istantrak keplerians #358
Path: IZ3LSV<IK8VKW<F1OYP<VK4TUB<VK4WIT<EA5RQ<EA3PB<HA3PG<SV1AAW<IK6PYS<
      IK6RUY<IK6IKJ<I6DH
Sent: 1001223/1656Z @:I6DH.IMAR.ITA.EU #:6176 [Ascoli P.] FBB5.15c $:1735_I6KZR
From: I6KZR@I6DH.IMAR.ITA.EU
To  : KEPLER@EU

R.001223/1733z @:I6KZR.I6DH.#IMAR.ITA.EU $:1735_I6KZR Sally 3.1.064 

Messaggio inviato da: I6KZR@I6DH.IMAR.ITA.EU        

Satellite: AO-10
Catalog number: 14129
Epoch time:      100356.97544393
Element set:     727 
Inclination:       26.6843 deg
RA of node:       295.3795 deg
Eccentricity:    0.6002310
Arg of perigee:   111.2323 deg
Mean anomaly:     320.6086 deg
Mean motion:    2.05866426 rev/day
Decay rate:   -1.1999E-007 rev/day^2
Epoch rev:           10382
Checksum:              306

Satellite: AO-40
Catalog number: 26609
Epoch time:      100354.78150683
Element set:     16 
Inclination:        6.2479 deg
RA of node:       237.0656 deg
Eccentricity:    0.8128421
Arg of perigee:   195.4843 deg
Mean anomaly:      97.8405 deg
Mean motion:    1.26866570 rev/day
Decay rate:   -2.9200E-006 rev/day^2
Epoch rev:              61
Checksum:              387

Satellite: FO-20
Catalog number: 20480
Epoch time:      100355.86959518
Element set:     277 
Inclination:       99.0749 deg
RA of node:        91.5094 deg
Eccentricity:    0.0541213
Arg of perigee:   352.8465 deg
Mean anomaly:       6.5126 deg
Mean motion:   12.83284554 rev/day
Decay rate:    5.0000E-008 rev/day^2
Epoch rev:           50922
Checksum:              312

Satellite: FO-29
Catalog number: 24278
Epoch time:      100355.73011057
Element set:     421 
Inclination:       98.5692 deg
RA of node:       238.9168 deg
Eccentricity:    0.0352030
Arg of perigee:   104.1176 deg
Mean anomaly:     259.9342 deg
Mean motion:   13.52751936 rev/day
Decay rate:    1.3999E-007 rev/day^2
Epoch rev:           21451
Checksum:              322

Satellite: MIR
Catalog number: 16609
Epoch time:      100358.19887631
Element set:     348 
Inclination:       51.6494 deg
RA of node:         7.9705 deg
Eccentricity:    0.0015892
Arg of perigee:   143.6642 deg
Mean anomaly:     308.8810 deg
Mean motion:   15.85031283 rev/day
Decay rate:    1.0728E-003 rev/day^2
Epoch rev:           84891
Checksum:              327

Satellite: RS-12/13
Catalog number: 21089
Epoch time:      100355.69034230
Element set:     301 
Inclination:       82.9233 deg
RA of node:        47.4247 deg
Eccentricity:    0.0029011
Arg of perigee:   329.1853 deg
Mean anomaly:      30.7599 deg
Mean motion:   13.74240041 rev/day
Decay rate:    8.9000E-007 rev/day^2
Epoch rev:           49529
Checksum:              291

Satellite: RS-15
Catalog number: 23439
Epoch time:      100355.75377030
Element set:     516 
Inclination:       64.8173 deg
RA of node:       238.7573 deg
Eccentricity:    0.0167381
Arg of perigee:   257.3112 deg
Mean anomaly:     100.9053 deg
Mean motion:   11.27539112 rev/day
Decay rate:   -3.8999E-007 rev/day^2
Epoch rev:           24654
Checksum:              320

Satellite: UO-14
Catalog number: 20437
Epoch time:      100357.72738329
Element set:     582 
Inclination:       98.3867 deg
RA of node:        58.2401 deg
Eccentricity:    0.0011636
Arg of perigee:    21.3189 deg
Mean anomaly:     338.8477 deg
Mean motion:   14.30602340 rev/day
Decay rate:    3.0500E-006 rev/day^2
Epoch rev:           56982
Checksum:              310

Satellite: UO-15
Catalog number: 20438
Epoch time:      100357.21113384
Element set:     366 
Inclination:       98.3580 deg
RA of node:        50.6287 deg
Eccentricity:    0.0011079
Arg of perigee:    31.4512 deg
Mean anomaly:     328.7331 deg
Mean motion:   14.29705185 rev/day
Decay rate:    2.1400E-006 rev/day^2
Epoch rev:           56949
Checksum:              295

Satellite: AO-16
Catalog number: 20439
Epoch time:      100358.18655589
Element set:     380 
Inclination:       98.4276 deg
RA of node:        65.9884 deg
Eccentricity:    0.0011993
Arg of perigee:    22.2199 deg
Mean anomaly:     337.9518 deg
Mean motion:   14.30704739 rev/day
Decay rate:    4.3800E-006 rev/day^2
Epoch rev:           56991
Checksum:              357

Satellite: DO-17
Catalog number: 20440
Epoch time:      100357.74902817
Element set:     374 
Inclination:       98.4394 deg
RA of node:        67.8473 deg
Eccentricity:    0.0011869
Arg of perigee:    23.5334 deg
Mean anomaly:     336.6388 deg
Mean motion:   14.30906394 rev/day
Decay rate:    4.5400E-006 rev/day^2
Epoch rev:           56990
Checksum:              335

Satellite: WO-18
Catalog number: 20441
Epoch time:      100357.23698550
Element set:     388 
Inclination:       98.4378 deg
RA of node:        66.9716 deg
Eccentricity:    0.0012206
Arg of perigee:    26.6450 deg
Mean anomaly:     333.5359 deg
Mean motion:   14.30798630 rev/day
Decay rate:    3.8399E-006 rev/day^2
Epoch rev:           56982
Checksum:              349

Satellite: LO-19
Catalog number: 20442
Epoch time:      100358.20886547
Element set:     380 
Inclination:       98.4468 deg
RA of node:        69.7026 deg
Eccentricity:    0.0012741
Arg of perigee:    21.4551 deg
Mean anomaly:     338.7162 deg
Mean motion:   14.30942670 rev/day
Decay rate:    4.3199E-006 rev/day^2
Epoch rev:           57000
Checksum:              310

Satellite: AO-21
Catalog number: 21087
Epoch time:      100358.04188896
Element set:     244 
Inclination:       82.9390 deg
RA of node:       180.5340 deg
Eccentricity:    0.0034309
Arg of perigee:   288.0116 deg
Mean anomaly:      71.7301 deg
Mean motion:   13.74747975 rev/day
Decay rate:    9.4000E-007 rev/day^2
Epoch rev:           49667
Checksum:              322

Satellite: UO-22
Catalog number: 21575
Epoch time:      100357.52803980
Element set:     92 
Inclination:       98.1362 deg
RA of node:        15.2030 deg
Eccentricity:    0.0007794
Arg of perigee:     0.3843 deg
Mean anomaly:     359.7350 deg
Mean motion:   14.37961607 rev/day
Decay rate:    4.7700E-006 rev/day^2
Epoch rev:           49498
Checksum:              314

Satellite: KO-23
Catalog number: 22077
Epoch time:      100355.91042934
Element set:     3 
Inclination:       66.0865 deg
RA of node:       339.3634 deg
Eccentricity:    0.0015832
Arg of perigee:   275.6359 deg
Mean anomaly:      84.2854 deg
Mean motion:   12.86356675 rev/day
Decay rate:   -3.7000E-007 rev/day^2
Epoch rev:           39273
Checksum:              320

Satellite: KO-25
Catalog number: 22828
Epoch time:      100357.67562287
Element set:     841 
Inclination:       98.3794 deg
RA of node:        48.3694 deg
Eccentricity:    0.0011043
Arg of perigee:    49.7377 deg
Mean anomaly:     310.4768 deg
Mean motion:   14.28884478 rev/day
Decay rate:    3.6900E-006 rev/day^2
Epoch rev:           34558
Checksum:              361

Satellite: IO-26
Catalog number: 22826
Epoch time:      100357.20222650
Element set:     859 
Inclination:       98.3838 deg
RA of node:        47.7201 deg
Eccentricity:    0.0009853
Arg of perigee:    67.5961 deg
Mean anomaly:     292.6254 deg
Mean motion:   14.28467437 rev/day
Decay rate:    3.3399E-006 rev/day^2
Epoch rev:           37734
Checksum:              453

Satellite: AO-27
Catalog number: 22825
Epoch time:      100356.29511818
Element set:     866 
Inclination:       98.3809 deg
RA of node:        46.1342 deg
Eccentricity:    0.0009513
Arg of perigee:    71.1015 deg
Mean anomaly:     289.1197 deg
Mean motion:   14.28305935 rev/day
Decay rate:    2.1700E-006 rev/day^2
Epoch rev:           37718
Checksum:              317

Satellite: MO-30
Catalog number: 24305
Epoch time:      100355.88422613
Element set:     481 
Inclination:       82.9344 deg
RA of node:       126.6215 deg
Eccentricity:    0.0028923
Arg of perigee:   240.4918 deg
Mean anomaly:     119.3351 deg
Mean motion:   13.73263809 rev/day
Decay rate:    2.0400E-006 rev/day^2
Epoch rev:           21509
Checksum:              285

Satellite: TO-31
Catalog number: 25396
Epoch time:      100357.86020882
Element set:     430 
Inclination:       98.7053 deg
RA of node:        71.2826 deg
Eccentricity:    0.0001782
Arg of perigee:   239.3491 deg
Mean anomaly:     120.7512 deg
Mean motion:   14.22859291 rev/day
Decay rate:   -4.4000E-007 rev/day^2
Epoch rev:           12748
Checksum:              301

Satellite: GO-32
Catalog number: 25397
Epoch time:      100355.93318352
Element set:     382 
Inclination:       98.7023 deg
RA of node:        69.0470 deg
Eccentricity:    0.0000619
Arg of perigee:   227.7192 deg
Mean anomaly:     132.3934 deg
Mean motion:   14.22516809 rev/day
Decay rate:    1.4500E-006 rev/day^2
Epoch rev:           12721
Checksum:              295

Satellite: SO-33
Catalog number: 25509
Epoch time:      100358.14531838
Element set:     201 
Inclination:       31.4481 deg
RA of node:       272.5012 deg
Eccentricity:    0.0363793
Arg of perigee:   278.2133 deg
Mean anomaly:      77.7433 deg
Mean motion:   14.25306503 rev/day
Decay rate:    1.2710E-005 rev/day^2
Epoch rev:           11280
Checksum:              272

Satellite: PO-34
Catalog number: 25520
Epoch time:      100356.19862206
Element set:     258 
Inclination:       28.4619 deg
RA of node:        54.2589 deg
Eccentricity:    0.0007024
Arg of perigee:   116.6456 deg
Mean anomaly:     243.4949 deg
Mean motion:   15.07203828 rev/day
Decay rate:    3.6869E-005 rev/day^2
Epoch rev:           11811
Checksum:              426

Satellite: SO-35
Catalog number: 25636
Epoch time:      100358.04089889
Element set:     287 
Inclination:       96.4515 deg
RA of node:       156.3453 deg
Eccentricity:    0.0150833
Arg of perigee:   304.7634 deg
Mean anomaly:      53.9435 deg
Mean motion:   14.41621083 rev/day
Decay rate:    1.0640E-005 rev/day^2
Epoch rev:            9629
Checksum:              322

